Regional Weather Roundup
Issued by NWS Cleveland, OH

Home | Current Version | Previous Version | Graphics & Text | Print | Product List | Glossary On
Versions: 1 2 3 4 5 6 7 8 9 10 11 12 13 14 15 16 17 18 19 20 21 22 23 24 25 26 27 28 29 30 31 32 33 34 35 36 37 38 39 40 41 42 43 44 45 46 47 48 49 50
000
ASUS41 KCLE 270200
RWRCLE
OHIO REGIONAL WEATHER ROUNDUP
NATIONAL WEATHER SERVICE WILMINGTON, OH
1000 PM EDT SUN MAR 26 2017

NOTE: "FAIR" INDICATES FEW OR NO CLOUDS BELOW 12,000 FEET WITH NO
SIGNIFICANT WEATHER AND/OR OBSTRUCTIONS TO VISIBILITY.

OHZ001>008-015>018-024>027-034-035-043-044-270300-
   NORTHWEST OHIO

CITY           SKY/WX    TMP DP  RH WIND       PRES   REMARKS
DEFIANCE       CLOUDY    52  51  97 S3        29.90S
FINDLAY        CLOUDY    53  49  86 S6        29.91R
TOLEDO EXPRESS LGT RAIN  51  51 100 SE3       29.90R FOG
TOLEDO EXEC    CLOUDY    51  50  96 CALM      29.91F FOG
LIMA           CLOUDY    53  52  96 S6        29.92R
$$

OHZ009>014-019>023-028>033-038-089-270300-
   NORTHEAST OHIO

CITY           SKY/WX    TMP DP  RH WIND       PRES   REMARKS
CLE-HOPKINS    MOCLDY    57  52  83 S8        29.95S
CLE-LAKEFRONT  CLOUDY    58  52  80 S10       29.92S
CUY CO. ARPT   MOCLDY    57  55  94 S10       29.94S
LORAIN-ELYRIA  CLOUDY    55  50  83 S7        29.92F
ASHTABULA      CLOUDY    54  52  93 S12       29.96S
AKRON-CANTON   LGT RAIN  57  52  83 S13       29.96R
WOOSTER        NOT AVBL
MANSFIELD      LGT RAIN  55  53  93 S8        29.96R
YOUNGSTOWN     CLOUDY    54  52  93 SE10      29.99R
$$

OHZ042-051>053-060>062-070>072-077>081-270300-
  SOUTHWEST OHIO

CITY           SKY/WX    TMP DP  RH WIND       PRES   REMARKS
CINC-COVINGTON FAIR      56  54  93 SW6       29.96R
CINC-LUNKEN    FAIR      54  32  43 SW6       29.97R
HAMILTON       FAIR      56  55  97 SW3       29.97R
DAYTON         NOT AVBL
WRIGHT-PAT AFB NOT AVBL
DAYTON GENERAL MOCLDY    57  54  89 S7        29.94R
WILMINGTON     CLOUDY    56  55  97 SW6       29.95S
$$

OHZ036-037-039>041-045>050-054>059-063>069-073>076-082>088-270300-
  CENTRAL AND SOUTHEAST OHIO

CITY           SKY/WX    TMP DP  RH WIND       PRES   REMARKS
COLUMBUS       LGT RAIN  56  54  93 SE5       29.95R
OSU AIRPORT    CLOUDY    55  55 100 S6        29.95R
BOLTON FIELD   NOT AVBL
RICKENBACK AFB NOT AVBL
NEWARK         LGT RAIN  55  53  93 SE5       29.96S
MARION         CLOUDY    55  53  93 S7        29.94R
LANCASTER      LGT RAIN  57  54  89 S3        29.97S
ZANESVILLE     CLOUDY    57  53  86 SE8       29.96S
NEW PHILLY     CLOUDY    57  52  83 CALM      29.98R
$$



USA.gov is the U.S. government's official web portal to all federal, state and local government web resources and services.